Home > Weather > Leirvik > Past weeks

Flag for Norway Weather for the Past 2 Weeks in Leirvik, Norway

Now
52 °F

Cool.


Feels Like: 48 °F
Forecast: 46 / 56 °F
Wind: 12 mph from South

Location: Slatteroy Fyr

Current Time: May 5, 2016 at 4:26:48 PM

Latest Report: May 5, 2016 at 3:00 PM


Visibility: N/A

Pressure: 30.14 "Hg

Humidity: 65%

Dew Point: 40 °F

Location of LeirvikLocation

Historic Weather in Leirvik — Graph

°F

Leirvik Temperature Yesterday

Maximum temperature yesterday: 51 °F (at 1:00 PM)
Minimum temperature yesterday: 43 °F (at 6:00 AM)
Average temperature yesterday: 47 °F

High & Low Weather Summary for the Past Weeks

 TemperatureHumidityPressure
High53 °F (May 5, 11:00 AM)95% (Apr 23, 6:00 AM)30.39 "Hg (Apr 23, 6:00 AM)
Low34 °F (Apr 23, 6:00 AM)30% (Apr 25, 1:00 PM)29.72 "Hg (Apr 29, 10:00 AM)
Average44 °F69%30.01 "Hg
* Reported Apr 20 3:00 PM — May 5 3:00 PM, Leirvik, Weather by CustomWeather, © 2016

Note: Actual official high and low records may vary slightly from our data, if they occured in-between our weather recording intervals... More about our weather records

Advertising

Leirvik Weather History for the Previous 24 Hours

Scroll right to see more
 ConditionsComfort  
Time TempWeatherWind HumidityBarometerVisibility
3:00 PM
Thu, May 5
52 °FCool.12 mph65%30.14 "HgN/A
2:00 PM52 °FCool.14 mph62%30.14 "HgN/A
1:00 PM52 °FCool.15 mph63%30.15 "HgN/A
12:00 PM52 °FCool.16 mph63%30.15 "HgN/A
11:00 AM53 °FCool.14 mph62%30.15 "HgN/A
10:00 AM52 °FCool.14 mph61%30.16 "HgN/A
9:00 AM51 °FCool.13 mph61%30.16 "HgN/A
8:00 AM51 °FCool.10 mph60%30.16 "HgN/A
7:00 AM50 °FCool.10 mph62%30.15 "HgN/A
6:00 AM49 °FCool.12 mph62%30.16 "HgN/A
5:00 AM49 °FCool.10 mph62%30.17 "HgN/A
4:00 AM48 °FCool.10 mph65%30.18 "HgN/A
3:00 AM48 °FCool.12 mph65%30.18 "HgN/A
2:00 AM48 °FCool.10 mph64%30.19 "HgN/A
1:00 AM48 °FCool.10 mph65%30.21 "HgN/A
12:00 AM48 °FCool.9 mph66%30.22 "HgN/A
11:00 PM
Wed, May 4
48 °FCool.9 mph66%30.22 "HgN/A
10:00 PM48 °FCool.8 mph67%30.22 "HgN/A
9:00 PM49 °FCool.9 mph67%30.22 "HgN/A
8:00 PM49 °FCool.10 mph70%30.23 "HgN/A
7:00 PM50 °FCool.10 mph64%30.23 "HgN/A
6:00 PM50 °FCool.10 mph63%30.24 "HgN/A
5:00 PM49 °FCool.10 mph74%30.25 "HgN/A
4:00 PM48 °FCool.12 mph80%30.25 "HgN/A
Weather by CustomWeather, © 2016

See weather overviewHow to use our weather pages